Miscellaneous Local Product
Issued by NWS Hastings, NE

Home | Current Version | Previous Version | Graphics & Text | Print | Product List | Glossary On
Versions: 1 2 3 4 5 6 7 8 9 10 11 12 13 14 15 16 17 18 19 20 21 22 23 24 25 26 27 28 29 30 31 32 33 34 35 36 37 38 39 40 41 42 43 44 45 46 47 48 49 50
000
AXUS43 KGID 170802
MISGRI

GID CWA HOURLY WEATHER ROUNDUP
NATIONAL WEATHER SERVICE HASTINGS NE
300 AM CDT FRI APR 17 2015

NOTE: "FAIR" INDICATES FEW OR NO CLOUDS BELOW 12,000 FEET WITH NO
SIGNIFICANT WEATHER AND/OR OBSTRUCTIONS TO VISIBILITY.

...SOUTH CENTRAL NEBRASKA...

CITY           SKY/WX    TMP DP  RH WIND       PRES   REMARKS
GRAND ISLAND   CLOUDY    55  52  89 NE5       30.08F
HASTINGS       CLOUDY    56  53  90 E7        30.05F
KEARNEY        CLOUDY    54  52  94 N12       30.06F
ORD            CLOUDY    53  49  86 N3        30.09S
YORK           CLOUDY    55  54  94 N3        30.06F FOG
AURORA         CLOUDY    55  55  97 E7        30.07F FOG
LEXINGTON      LGT RAIN  55  53  94 CALM      30.09R
HOLDREGE       RAIN      54  51  90 NE5       30.07R
HEBRON         CLOUDY    56  53  89 E3        30.05S

...NEBRASKA PANHANDLE...

CITY           SKY/WX    TMP DP  RH WIND       PRES   REMARKS
CHADRON        CLOUDY    45  37  73 E3        30.18F
ALLIANCE       LGT RAIN  46  41  82 NE9       30.16R
SCOTTSBLUFF    LGT RAIN  46  40  79 CALM      30.15S
SIDNEY         RAIN      45  44  97 NE15      30.10F FOG

...WESTERN AND NORTH CENTRAL NEBRASKA...

CITY           SKY/WX    TMP DP  RH WIND       PRES   REMARKS
VALENTINE      CLOUDY    53  36  52 N13       30.15R
AINSWORTH      CLOUDY    51  44  75 CALM      30.14S
ONEILL         CLOUDY    50  49  95 CALM      30.12S
BROKEN BOW     CLOUDY    56  50  80 E8        30.09S
IMPERIAL       LGT RAIN  51  50  96 CALM      30.07F FOG
NORTH PLATTE   LGT RAIN  52  50  93 CALM      30.11R
MCCOOK         LGT RAIN  53  51  93 NE9       30.07S FOG

...EASTERN NEBRASKA...

CITY           SKY/WX    TMP DP  RH WIND       PRES   REMARKS
NORFOLK        NOT AVBL
SO SIOUX CITY  PTCLDY    49  43  80 CALM      30.10S
TEKAMAH        CLOUDY    54  48  80 N5        30.08F
COLUMBUS       CLOUDY    55  46  71 NE9       30.09F
ALBION         CLOUDY    55  47  75 N3        30.10F
OMAHA EPPLEY   CLOUDY    55  51  86 N5        30.07S
MILLARD        CLOUDY    58  53  83 CALM      30.06F
LINCOLN        LGT RAIN  59  53  80 E5        30.07F
NEBRASKA CITY  CLOUDY    58  48  69 CALM      30.07F
BEATRICE       CLOUDY    59  56  89 SW5       30.06R
FALLS CITY     MOCLDY    58  52  80 E3        30.05F

...NORTHERN KANSAS...

CITY           SKY/WX    TMP DP  RH WIND       PRES   REMARKS
GOODLAND       CLOUDY    48  47  96 N10       30.06R
HILL CITY      LGT RAIN  54  51  90 NE6       30.05F
NORTON         DRIZZLE   54  50  87 CALM      30.05F
PHILLIPSBURG   DRIZZLE   57  55  94 CALM      30.06R
SMITH CENTER   CLOUDY    55  52  88 E12       30.05R
BELOIT         CLOUDY    59  48  67 E6        30.03S
HAYS           CLOUDY    57  46  67 SW15      30.05R
RUSSELL        LGT RAIN  59  52  77 SE12      30.02R
CONCORDIA      CLOUDY    58  53  84 E6        30.04S
SALINA         CLOUDY    56  52  86 NW3       30.03F
TOPEKA         MOCLDY    57  54  89 CALM      30.03F



USA.gov is the U.S. government's official web portal to all federal, state and local government web resources and services.